Change the Weather History Date:

Saturday, June 8, 2013

  Actual Average Record
Temperature  
Mean Temperature 56 °F -  
Max Temperature 60 °F 73 °F 86 °F (2012)
Min Temperature 51 °F 53 °F 44 °F (2014)
Degree Days  
Heating Degree Days 10    
Growing Degree Days 6 (Base 50)    
Moisture  
Dew Point 51 °F    
Average Humidity 80    
Maximum Humidity 94    
Minimum Humidity 67    
Precipitation  
Precipitation 0.90 in - - ()
Sea Level Pressure  
Sea Level Pressure 29.87 in    
Wind  
Wind Speed 10 mph (SE)    
Max Wind Speed 24 mph    
Max Gust Speed 32 mph    
Visibility 8 miles    
Events Rain    
Averages and records for this station are not official NWS values.
T = Trace of Precipitation, MM = Missing Value Source: NWS Daily Summary

Daily Weather History Graph

Daily Weather History Graph

Search for Another Location

Airport or City:

Trip Planner

Search our weather history database for the weather conditions in past years. The results will help you decide how hot, cold, wet, or windy it might be!

Date:

Astronomy

Jun. 08, 2013 Rise Set
Actual Time 5:38 AM CDT 8:59 PM CDT
Civil Twilight 5:03 AM CDT 9:35 PM CDT
Nautical Twilight 4:16 AM CDT 10:21 PM CDT
Astronomical Twilight 3:19 AM CDT 11:19 PM CDT
Moon 5:48 AM CDT (6/8) 9:01 PM CDT (6/8)
Length of Visible Light 16h 32m
Length of Day
15h 21m
New Moon, 0% of the Moon is Illuminated
Jun 8
New Moon
Jun 16
First Quarter
Jun 23
Full
Jun 29
Last Quarter
Jul 8
New

Hourly Weather History & Observations

Time (CDT) Temp. Dew Point Humidity Pressure Visibility Wind Dir Wind Speed Gust Speed Precip Events Conditions
12:14 AM 55.4 °F 46.4 °F 72% 29.92 in 10.0 mi SSE 6.9 mph - N/A   Clear
12:34 AM 55.4 °F 46.4 °F 72% 29.92 in 10.0 mi SE 5.8 mph - N/A   Clear
12:53 AM 55.4 °F 46.4 °F 72% 29.92 in 10.0 mi SE 5.8 mph - N/A   Clear
1:14 AM 53.6 °F 46.4 °F 77% 29.92 in 10.0 mi SSE 4.6 mph - N/A   Clear
1:34 AM 55.4 °F 46.4 °F 72% 29.91 in 10.0 mi SSE 5.8 mph - N/A   Clear
1:54 AM 55.4 °F 46.4 °F 72% 29.92 in 10.0 mi SSE 6.9 mph - N/A   Clear
2:14 AM 53.6 °F 46.4 °F 77% 29.91 in 10.0 mi SSE 5.8 mph - N/A   Clear
2:34 AM 53.6 °F 46.4 °F 77% 29.91 in 10.0 mi SSE 5.8 mph - N/A   Clear
2:54 AM 53.6 °F 46.4 °F 77% 29.91 in 10.0 mi SSE 8.1 mph - N/A   Clear
3:14 AM 53.6 °F 46.4 °F 77% 29.90 in 10.0 mi SSE 6.9 mph - N/A   Clear
3:34 AM 53.6 °F 46.4 °F 77% 29.90 in 10.0 mi SSE 9.2 mph - N/A   Clear
3:54 AM 53.6 °F 46.4 °F 77% 29.90 in 10.0 mi SSE 8.1 mph - N/A   Clear
4:14 AM 53.6 °F 46.4 °F 77% 29.91 in 10.0 mi South 8.1 mph - N/A   Clear
4:33 AM 51.8 °F 46.4 °F 82% 29.91 in 10.0 mi SSE 5.8 mph - N/A   Clear
4:54 AM 53.6 °F 46.4 °F 77% 29.90 in 10.0 mi South 6.9 mph - N/A   Clear
5:14 AM 51.8 °F 46.4 °F 82% 29.89 in 10.0 mi SSE 6.9 mph - N/A   Clear
5:34 AM 53.6 °F 46.4 °F 77% 29.88 in 10.0 mi SSE 10.4 mph - N/A   Scattered Clouds
5:54 AM 55.4 °F 46.4 °F 72% 29.87 in 10.0 mi SSE 8.1 mph - N/A   Mostly Cloudy
6:14 AM 55.4 °F 46.4 °F 72% 29.88 in 10.0 mi SSE 9.2 mph - N/A   Overcast
6:34 AM 55.4 °F 46.4 °F 72% 29.88 in 10.0 mi SE 6.9 mph - N/A   Mostly Cloudy
6:54 AM 55.4 °F 48.2 °F 77% 29.88 in 10.0 mi SE 8.1 mph - N/A   Scattered Clouds
7:14 AM 55.4 °F 48.2 °F 77% 29.88 in 10.0 mi SE 8.1 mph - N/A   Mostly Cloudy
7:34 AM 55.4 °F 48.2 °F 77% 29.89 in 10.0 mi South 8.1 mph - N/A   Mostly Cloudy
7:54 AM 55.4 °F 48.2 °F 77% 29.89 in 10.0 mi SSE 8.1 mph - N/A   Overcast
8:14 AM 57.2 °F 48.2 °F 72% 29.89 in 10.0 mi South 8.1 mph - N/A   Overcast
8:34 AM 57.2 °F 48.2 °F 72% 29.89 in 10.0 mi South 10.4 mph - N/A   Overcast
8:54 AM 59.0 °F 48.2 °F 67% 29.89 in 10.0 mi SSE 8.1 mph - N/A   Mostly Cloudy
9:13 AM 59.0 °F 48.2 °F 67% 29.91 in 10.0 mi South 6.9 mph - N/A   Overcast
9:34 AM 57.2 °F 50.0 °F 77% 29.92 in 10.0 mi SSW 5.8 mph - N/A Rain Rain
9:54 AM 57.2 °F 50.0 °F 77% 29.91 in 7.0 mi South 4.6 mph - 0.01 in Rain Light Rain
10:13 AM 57.2 °F 50.0 °F 77% 29.90 in 10.0 mi South 6.9 mph - N/A Rain Rain
10:34 AM 57.2 °F 50.0 °F 77% 29.89 in 10.0 mi South 8.1 mph - 0.01 in Rain Light Rain
10:54 AM 59.0 °F 51.8 °F 77% 29.88 in 10.0 mi SSE 8.1 mph - 0.01 in   Drizzle
11:13 AM 59.0 °F 51.8 °F 77% 29.88 in 10.0 mi SSE 9.2 mph - N/A   Light Drizzle
11:34 AM 60.8 °F 51.8 °F 72% 29.88 in 10.0 mi SSE 11.5 mph - N/A Rain Light Rain
11:54 AM 60.8 °F 51.8 °F 72% 29.88 in 10.0 mi SSE 9.2 mph - N/A Rain Light Rain
12:13 PM 60.8 °F 53.6 °F 77% 29.88 in 7.0 mi SSE 8.1 mph - 0.01 in Rain Light Rain
12:34 PM 59.0 °F 53.6 °F 82% 29.89 in 7.0 mi SSE 9.2 mph - 0.02 in Rain Rain
12:53 PM 59.0 °F 53.6 °F 82% 29.88 in 5.0 mi SE 11.5 mph - 0.05 in Rain Rain
1:14 PM 59.0 °F 53.6 °F 82% 29.88 in 5.0 mi SE 9.2 mph - 0.02 in Rain Rain
1:34 PM 59.0 °F 53.6 °F 82% 29.88 in 5.0 mi SE 11.5 mph - 0.04 in Rain Light Rain
1:54 PM 59.0 °F 55.4 °F 88% 29.87 in 7.0 mi SE 12.7 mph - 0.05 in Rain Light Rain
2:14 PM 59.0 °F 53.6 °F 82% 29.87 in 10.0 mi SE 13.8 mph - 0.01 in Rain Rain
2:34 PM 59.0 °F 53.6 °F 82% 29.87 in 7.0 mi SE 12.7 mph - 0.02 in Rain Rain
2:54 PM 60.8 °F 53.6 °F 77% 29.87 in 10.0 mi SE 17.3 mph 23.0 mph 0.03 in Rain Light Rain
3:14 PM 60.8 °F 53.6 °F 77% 29.86 in 10.0 mi SE 17.3 mph 21.9 mph N/A   Light Drizzle
3:34 PM 60.8 °F 55.4 °F 82% 29.86 in 10.0 mi SE 17.3 mph 24.2 mph 0.01 in Rain Light Rain
3:54 PM 59.0 °F 53.6 °F 82% 29.86 in 7.0 mi SE 18.4 mph 24.2 mph 0.02 in Rain Rain
4:14 PM 59.0 °F 53.6 °F 82% 29.86 in 5.0 mi ESE 17.3 mph 21.9 mph 0.03 in Rain Light Rain
4:34 PM 59.0 °F 53.6 °F 82% 29.86 in 3.0 mi ESE 20.7 mph 25.3 mph 0.07 in Rain Rain
4:54 PM 59.0 °F 53.6 °F 82% 29.86 in 4.0 mi ESE 17.3 mph 25.3 mph 0.11 in Rain Rain
5:14 PM 59.0 °F 53.6 °F 82% 29.86 in 10.0 mi ESE 15.0 mph - 0.02 in Rain Light Rain
5:34 PM 59.0 °F 55.4 °F 88% 29.86 in 7.0 mi ESE 17.3 mph - 0.03 in Rain Rain
5:54 PM 59.0 °F 55.4 °F 88% 29.86 in 5.0 mi SE 15.0 mph 19.6 mph 0.06 in Rain Light Rain
6:14 PM 59.0 °F 53.6 °F 82% 29.84 in 5.0 mi ESE 18.4 mph 24.2 mph 0.02 in Rain Rain
6:34 PM 59.0 °F 53.6 °F 82% 29.83 in 7.0 mi ESE 18.4 mph 24.2 mph 0.05 in Rain Light Rain
6:54 PM 59.0 °F 55.4 °F 88% 29.83 in 7.0 mi ESE 19.6 mph - 0.07 in Rain Rain
7:14 PM 59.0 °F 55.4 °F 88% 29.83 in 7.0 mi ESE 17.3 mph - 0.01 in Rain Rain
7:34 PM 59.0 °F 55.4 °F 88% 29.83 in 7.0 mi ESE 17.3 mph - 0.02 in   Light Drizzle
7:54 PM 59.0 °F 55.4 °F 88% 29.83 in 5.0 mi ESE 15.0 mph - 0.03 in Rain Light Rain
8:14 PM 59.0 °F 55.4 °F 88% 29.83 in 5.0 mi ESE 15.0 mph - 0.01 in Rain Rain
8:34 PM 59.0 °F 55.4 °F 88% 29.82 in 5.0 mi ESE 13.8 mph - 0.03 in Rain Rain
8:54 PM 59.0 °F 55.4 °F 88% 29.82 in 5.0 mi ESE 16.1 mph - 0.06 in Rain Rain
9:14 PM 59.0 °F 55.4 °F 88% 29.82 in 3.0 mi ESE 17.3 mph 23.0 mph 0.10 in Rain Rain
9:34 PM 59.0 °F 55.4 °F 88% 29.82 in 5.0 mi ESE 19.6 mph 24.2 mph 0.16 in Rain Light Rain
9:53 PM 59.0 °F 55.4 °F 88% 29.82 in 5.0 mi ESE 23.0 mph 27.6 mph 0.19 in Rain Light Rain
10:14 PM 57.2 °F 55.4 °F 94% 29.81 in 5.0 mi ESE 24.2 mph 29.9 mph 0.03 in Rain Light Rain
10:34 PM 57.2 °F 53.6 °F 88% 29.80 in 5.0 mi ESE 21.9 mph 32.2 mph 0.06 in Rain Rain
10:53 PM 55.4 °F 53.6 °F 94% 29.80 in 7.0 mi ESE 21.9 mph 28.8 mph 0.10 in Rain Rain
11:14 PM 55.4 °F 53.6 °F 94% 29.79 in 5.0 mi East 19.6 mph 26.5 mph 0.06 in Rain Light Rain
11:33 PM 57.2 °F 53.6 °F 88% 29.78 in 7.0 mi East 24.2 mph 28.8 mph 0.10 in Rain Light Rain
11:54 PM 57.2 °F 53.6 °F 88% 29.78 in 7.0 mi East 21.9 mph 29.9 mph 0.11 in Rain Light Rain